Theta_e
339 338 340 338 336 332 328 325 323 321 317 315 316 315 315 313 312 311 309 310 308 307 306 305 303 300 298 298 298 298 298 298 301 303 305 305 302 302 302 304 305 303 304
338 337 337 335 330 325 322 322 320 316 316 316 316 315 313 312 311 311 310 309 308 306 304 301 299 299 295 295 296 296 296 298 301 301 303 301 300 300 300 301 301 303 303
336 334 329 326 325 323 320 320 317 316 313 312 311 310 310 311 310 311 310 309 308 305 302 299 297 296 294 294 294 295 295 299 299 303 300 299 299 301 299 300 300 300 303
331 327 324 323 322 320 319 315 311 309 307 305 304 303 303 303 305 309 308 305 305 304 301 300 297 296 294 294 296 295 298 297 297 302 297 296 299 300 300 298 297 299 299
325 322 321 321 319 317 312 308 306 305 303 302 299 298 297 299 301 305 307 303 300 298 299 299 297 300 302 301 298 296 296 295 298 299 296 296 297 297 297 298 297 298 299
322 320 320 317 314 312 308 304 300 298 297 295 294 294 294 297 299 305 306 300 297 294 294 294 295 297 296 299 301 303 301 295 294 295 296 296 297 297 298 298 297 296 294
319 318 316 314 311 308 304 300 296 293 292 290 290 293 293 297 301 302 303 296 293 292 291 291 293 295 294 293 296 299 299 300 301 297 294 297 297 298 299 298 298 297 297
315 314 313 311 308 305 301 297 294 292 291 290 290 291 292 295 298 299 298 293 292 292 291 290 290 291 293 293 292 293 293 294 296 298 296 298 298 299 300 300 300 299 300
314 313 312 310 308 304 300 296 293 292 291 290 290 289 290 290 295 295 296 293 292 291 291 293 291 291 295 294 291 290 291 293 298 300 299 298 297 297 300 301 299 297 296
313 312 312 311 308 304 302 298 295 294 293 291 290 289 293 289 294 294 292 292 289 291 291 290 296 293 293 293 289 289 288 290 291 293 294 295 297 301 302 302 301 297 296
313 312 311 308 305 302 298 296 293 291 290 289 287 286 287 289 290 293 293 290 288 290 290 289 291 293 293 292 293 290 289 291 292 292 292 294 296 299 301 302 302 300 297
312 310 308 306 303 300 297 295 295 290 287 285 285 285 285 284 291 292 293 293 292 289 288 288 290 292 291 292 292 291 291 292 291 291 291 292 293 296 300 301 302 302 303
308 304 301 301 302 302 300 297 292 288 285 285 285 284 283 283 285 291 292 293 294 290 290 292 291 290 290 290 291 291 291 289 289 289 289 290 294 295 301 300 302 302 302
296 294 294 293 292 293 295 293 290 287 285 285 284 283 283 285 285 285 287 287 291 289 289 287 290 290 290 289 288 289 288 289 288 287 289 291 293 292 298 299 298 298 298
292 291 289 288 287 286 287 287 285 284 287 284 281 282 286 286 285 288 287 286 285 288 286 285 284 284 284 284 285 286 287 287 287 288 288 289 290 291 296 298 298 297 296
289 288 288 287 287 286 286 286 290 289 289 288 288 287 287 289 291 290 290 289 289 288 285 283 282 282 282 282 282 283 285 286 286 287 287 288 288 290 293 296 296 295 294
287 286 286 286 286 286 286 286 285 288 290 290 290 290 290 290 290 290 289 288 288 286 282 282 281 281 280 281 281 282 282 284 285 285 286 287 288 289 294 294 294 293 293
288 289 287 287 287 287 287 286 286 286 285 286 288 290 290 289 289 289 288 287 284 284 282 281 280 280 280 280 280 281 282 283 283 284 285 286 287 288 292 293 293 292 292
288 287 288 289 289 288 287 286 285 284 283 284 287 288 289 289 289 288 288 285 282 281 281 280 280 279 279 279 280 281 281 282 282 283 284 285 287 288 290 293 292 290 290
291 291 291 291 290 289 289 287 285 285 286 286 285 283 284 286 285 284 284 283 283 281 280 279 279 279 279 279 280 280 281 281 281 282 283 284 286 289 292 293 292 291 290
294 292 291 290 289 288 287 286 287 286 286 285 283 285 284 285 284 283 283 282 282 281 280 279 278 278 278 279 280 280 280 281 281 282 282 284 286 290 294 293 292 291 291
293 291 290 288 288 287 287 287 287 286 286 285 285 285 284 285 284 284 283 282 281 280 279 278 278 277 277 278 279 279 279 280 281 281 282 284 287 292 293 293 291 291 291
292 291 290 289 288 288 287 287 286 286 286 286 286 285 285 283 283 284 284 282 281 280 279 278 278 278 278 278 279 280 278 279 281 282 282 284 287 291 293 292 291 290 290
292 291 290 289 288 287 287 286 286 286 286 285 285 284 284 283 284 284 283 283 281 280 279 278 278 278 278 279 280 280 281 281 282 283 284 286 288 291 293 292 291 291 291
291 290 289 288 288 287 286 285 285 286 286 286 285 284 283 284 283 284 283 282 281 279 278 278 278 279 279 279 280 280 281 282 282 283 285 286 287 291 293 292 291 291 290
290 290 289 288 287 287 286 286 285 285 285 285 284 283 283 283 282 283 283 282 281 280 279 278 278 279 279 280 280 281 281 281 282 283 285 286 286 288 291 292 292 291 289
Wind_Speed
22 19 18 12 15 14 13 15 14 12 10 10 10 10 10 9 7 6 6 7 7 6 6 8 6 6 4 4 4 3 3 2 4 7 7 10 13 13 12 12 12 11 11
22 20 18 17 16 16 15 15 15 12 9 9 9 11 9 7 6 7 7 6 6 8 6 7 6 6 6 5 4 5 4 5 4 10 9 10 12 11 14 14 11 10 12
22 21 17 18 17 17 17 15 16 15 8 11 11 10 10 8 7 7 6 7 10 8 6 7 6 7 7 5 4 5 4 4 4 5 9 7 8 10 13 12 12 12 9
21 20 18 18 19 17 15 15 17 14 13 13 10 10 9 8 7 6 7 8 8 6 6 7 6 6 6 6 5 5 5 4 4 5 6 8 10 13 10 12 14 12 12
20 21 19 20 20 18 15 15 16 15 14 11 11 10 8 8 4 5 7 8 8 7 6 5 5 10 13 10 4 6 6 4 5 5 7 8 11 14 14 11 11 12 13
23 22 22 20 21 19 15 14 17 17 11 12 10 8 8 5 3 10 10 9 7 6 5 4 4 9 10 14 15 14 9 5 5 3 7 10 12 12 12 11 10 11 11
22 22 22 21 19 18 16 17 17 14 12 11 8 10 10 7 13 15 14 6 6 5 4 6 6 7 8 6 11 12 11 14 11 4 6 10 12 14 13 14 13 12 9
24 21 21 25 19 15 17 18 13 13 12 10 10 9 11 9 14 13 11 7 5 6 5 7 7 7 7 7 7 8 9 8 9 7 6 8 10 11 10 12 12 12 9
25 23 21 19 18 19 18 15 14 14 12 11 10 10 12 8 13 9 6 6 5 6 6 8 7 6 10 10 8 9 10 11 13 16 14 13 15 14 11 9 10 10 11
17 21 18 19 19 19 16 16 13 13 12 10 11 9 12 9 13 11 8 3 7 5 8 7 11 9 13 13 7 7 10 10 10 13 12 12 12 11 16 12 11 11 9
19 20 16 19 18 15 18 14 13 13 11 11 11 6 7 8 11 14 9 5 4 7 6 5 6 12 14 15 11 10 8 10 12 9 9 9 11 11 11 11 12 10 9
21 20 19 17 14 15 17 13 12 12 12 8 8 8 6 6 13 13 13 13 10 8 4 4 7 14 14 15 12 15 15 12 9 9 10 10 10 11 10 11 10 11 5
22 19 15 15 13 14 15 13 10 9 8 8 8 7 5 4 7 15 17 15 13 7 6 10 12 13 13 11 17 17 14 9 9 10 11 10 11 11 10 12 10 11 7
20 18 16 15 14 12 9 8 8 8 8 8 8 8 5 9 8 6 6 6 8 9 9 6 8 11 15 13 12 12 9 9 8 9 10 10 10 11 10 10 8 11 8
19 17 15 13 14 12 9 6 8 5 7 8 4 6 10 10 4 2 6 5 4 7 4 5 8 9 10 10 10 11 9 10 10 10 10 11 10 10 10 10 9 9 9
19 14 12 12 12 12 13 13 17 12 11 14 10 9 6 8 14 14 15 15 12 8 6 9 9 9 10 10 10 10 10 13 10 10 10 10 10 10 10 10 10 9 10
17 15 12 13 11 12 12 12 13 10 16 14 18 18 14 13 15 16 13 12 11 9 10 9 9 9 9 9 9 8 9 9 9 9 9 10 10 10 11 10 10 9 8
15 19 12 11 11 11 11 11 10 11 11 9 12 11 16 17 16 13 9 8 9 11 9 9 8 8 8 8 8 9 9 10 10 9 10 10 10 10 10 11 10 9 8
13 12 12 12 11 12 10 9 8 6 5 6 7 10 13 14 12 13 11 9 9 9 8 9 8 7 7 8 7 8 8 9 9 9 9 10 10 9 10 10 10 12 10
13 17 13 12 10 10 8 8 8 8 8 8 7 4 3 6 8 7 7 8 8 8 7 8 7 7 7 7 8 8 8 9 10 9 9 10 10 9 10 10 10 9 9
11 11 16 11 10 9 8 9 9 9 9 7 4 4 6 7 6 6 8 8 8 7 6 6 6 6 6 7 8 8 8 8 9 9 9 10 10 10 9 9 8 8 8
12 11 11 11 10 10 9 9 9 9 8 8 6 6 6 5 6 8 8 8 7 5 4 5 5 5 5 6 8 8 9 9 10 10 10 10 9 10 9 9 9 8 8
11 12 11 10 10 11 10 8 8 8 8 8 7 5 5 5 5 8 8 6 5 5 4 5 6 6 6 6 5 6 7 9 9 8 9 10 9 10 9 9 9 8 9
12 12 12 10 9 10 10 9 8 8 9 8 7 7 6 5 6 7 6 5 5 5 5 5 5 8 8 8 7 7 7 9 8 9 10 10 10 11 10 10 9 11 9
11 11 11 12 11 10 9 8 7 8 8 7 7 7 5 7 6 6 5 5 5 5 6 6 5 8 9 12 12 14 14 16 13 14 9 11 12 14 12 10 10 10 13
10 11 10 10 9 9 8 8 8 8 8 7 7 6 6 6 6 5 5 5 5 4 5 5 7 10 11 10 13 15 16 17 15 16 10 10 11 10 10 11 14 10 11
Wind_Direction
141 145 147 152 141 128 119 118 121 123 123 118 112 106 104 101 102 99 84 86 87 83 60 60 48 33 21 7 0 349 324 315 303 317 322 328 336 331 337 322 323 322 323
141 146 142 140 133 125 121 124 123 120 113 116 107 98 98 101 101 91 88 82 92 86 70 64 41 27 22 5 356 345 320 317 303 318 337 331 336 330 328 326 327 323 329
138 139 138 134 133 125 123 129 127 109 102 88 83 89 87 84 82 86 86 83 85 88 82 63 37 27 21 352 343 333 319 310 295 306 328 337 330 335 329 332 332 327 327
132 130 131 126 122 119 125 117 100 101 101 87 84 81 76 70 63 72 99 86 82 90 81 67 40 27 16 349 344 333 329 315 307 331 328 338 344 343 339 332 333 337 330
122 120 123 117 114 109 104 96 102 96 83 90 89 75 71 69 46 94 89 83 77 67 55 60 52 37 33 19 352 329 339 329 326 335 334 345 345 347 343 332 326 323 327
122 120 120 117 114 103 104 108 91 84 89 85 73 79 67 61 37 77 89 87 79 67 54 36 26 32 10 1 358 356 357 337 325 311 351 347 338 342 334 328 326 336 339
114 116 115 110 104 107 109 94 89 95 87 78 69 69 60 49 77 86 94 94 91 78 58 37 26 24 3 350 350 352 349 347 355 315 334 348 328 336 330 330 332 328 319
103 106 110 95 109 112 103 94 101 91 88 82 70 61 69 46 68 87 101 93 84 63 40 42 45 14 358 3 356 356 352 342 345 341 332 322 330 319 324 330 323 317 320
109 106 100 119 121 109 106 109 102 95 88 81 72 70 68 47 51 68 95 82 66 45 41 43 47 20 11 13 20 3 353 353 344 342 334 328 320 323 327 334 343 338 338
105 108 121 124 108 106 119 108 106 96 93 86 76 58 65 59 38 51 62 76 59 50 39 29 23 36 22 23 29 6 7 343 330 336 344 347 339 347 360 358 342 346 343
109 110 109 97 113 129 106 101 103 101 98 84 76 57 58 50 43 49 52 63 71 62 48 20 19 26 23 19 20 21 5 339 334 341 344 349 347 353 2 353 346 347 355
112 110 110 117 117 108 112 115 105 98 89 92 91 74 44 32 44 45 57 64 63 67 35 12 21 19 15 14 17 9 7 4 358 356 356 350 352 350 350 352 343 342 348
110 106 106 100 103 114 114 108 100 102 107 96 87 78 53 19 46 42 52 56 60 64 55 39 21 13 10 13 14 14 14 11 7 4 355 344 347 334 350 354 352 353 4
103 99 91 92 91 84 88 95 107 110 99 96 96 85 84 59 47 31 43 44 46 50 38 19 22 25 31 20 13 10 11 13 12 1 349 338 337 346 1 2 351 352 4
96 94 94 90 90 86 72 96 98 64 105 114 143 91 79 70 25 69 78 60 50 50 30 36 33 26 25 20 17 4 1 10 10 1 351 349 345 349 355 5 0 355 13
103 101 105 107 104 104 103 97 63 88 85 71 75 82 54 97 77 73 64 57 49 37 52 46 36 29 25 17 14 4 358 2 2 358 352 348 348 347 352 4 5 7 5
108 112 106 108 116 118 115 110 107 67 70 65 74 76 80 86 71 69 65 59 49 48 56 44 39 30 24 17 9 8 352 351 351 359 352 346 349 346 358 4 5 7 9
110 114 114 117 114 113 110 107 108 102 96 79 52 83 75 73 65 60 56 64 54 47 53 47 36 25 18 12 5 1 350 351 359 354 352 348 351 343 357 4 4 8 4
115 114 115 114 111 109 105 96 87 96 105 108 96 72 70 70 70 62 58 68 66 55 46 43 33 22 15 5 356 356 351 349 349 351 351 346 348 343 356 4 3 3 5
115 111 110 111 107 102 108 115 110 108 108 99 92 84 78 83 72 66 63 67 63 58 48 43 28 22 11 2 357 356 352 354 352 353 347 343 343 346 358 5 4 2 1
121 120 115 112 112 112 112 111 117 107 99 97 111 105 94 99 98 87 77 65 62 58 50 42 30 24 10 1 1 356 354 349 350 347 344 340 339 355 3 8 5 5 6
118 121 119 116 120 120 112 105 103 104 113 108 96 91 87 92 91 86 78 70 66 56 50 50 39 23 5 360 355 353 352 349 346 345 340 338 340 0 5 9 10 8 6
114 112 117 117 114 108 106 109 110 104 103 103 103 95 83 78 76 81 87 78 63 50 33 40 40 24 10 0 353 349 344 340 328 326 333 337 348 1 8 10 10 9 7
113 119 122 125 123 117 112 106 106 113 110 101 94 87 79 75 75 79 91 87 72 52 37 39 36 30 13 9 2 357 351 343 339 340 342 347 356 6 12 14 15 16 16
119 118 119 117 113 112 112 112 114 108 105 101 91 80 71 74 74 77 83 92 78 66 49 39 27 19 13 6 4 0 356 359 0 355 357 -0 358 13 20 23 19 23 23
106 110 110 110 111 113 114 113 107 103 103 99 92 82 81 76 78 85 89 95 92 71 62 43 36 24 11 7 5 3 4 5 2 359 4 8 7 9 20 24 27 28 24